Dakar 2012 9ème étape

Dakar 2012 Argentine/Chili/Perou

Source : http://dakar.sport.francetv.fr/tous-les-classements

mardi 10 janvier : Liaison : 9 km Spécial : 556 km

Classement de la 9ème étape Moto - Antofagasta - Iquique

RangNuméroPilote/EquipageEquipeMarque - ModèleTempsRetard
1 003 RODRIGUES Helder TEAM YAMAHA RACING YAMAHA - WRF 450 05:16:17
2 002 DESPRES Cyril TEAM RED BULL KTM KTM - 450cc Rally 05:19:33 00:03:16
3 032 SVITKO Stefan HANT LOGOMOTION SLOVAKIA KTM - 450 RR 05:20:52 00:04:35
4 010 VILADOMS Jordi BORDONE-FERRARI KTM - Rally Replica 05:22:15 00:05:58
5 015 VERHOEVEN Frans SHERCO RALLY RAID - CROCOAVENTURES SHERCO - SR 450 05:23:19 00:07:02
6 001 COMA Marc KTM MRW RALLY DAKAR EAM KTM - 450 cc 05:23:27 00:07:10
7 020 FARRES GUELL Gerard BORDONE-FERRARI KTM - 450 RALLY REPLICA 05:23:29 00:07:12
8 028 ZANOL FELIPE KTM BRASIL KTM - 450 Replica 05:26:58 00:10:41
9 023 BARREDA BORT Joan HUSQVARNA RALLYE TEAM BY SPEEDBRAIN HUSQVARNA - Rally 450 RR 05:28:01 00:11:44
10 005 PEDRERO GARCIA Juan KTM MRW RALLY DAKAR EAM KTM - 450cc Rally 05:31:41 00:15:24
11 007 GONCALVES Paulo HUSQVARNA RALLYE TEAM BY SPEEDBRAIN Husqvarna - Rally 450 RR 05:34:45 00:18:28
12 006 ULLEVALSETER Pal Anders TEAM ULLEVALSETER KTM - 450 R 05:35:16 00:18:59
13 016 PAIN Olivier TEAM YAMAHA RACING YAMAHA - 450 YZF Rally 05:36:26 00:20:09
14 050 SALVATIERRA Juan Carlos GHR HONDA HONDA - CRF450X 05:39:27 00:23:10
15 022 DUCLOS Alain GIOFIL APRILIA APRILIA - RXV 4.5 Rally 05:40:41 00:24:24
16 034 BOTTURI ALESSANDRO BORDONE-FERRARI KTM - 450 RALLY REPLICA 05:41:19 00:25:02
17 064 SCHRÖDER DANIEL MEMO TOURS - ALFIE COX TEAM KTM - 450cc 05:43:37 00:27:20
18 017 CZACHOR Jacek ORLEN TEAM KTM - 450 Replica 05:44:36 00:28:19
19 012 PELLICER Jose Manuel HUSQVARNA RALLYE TEAM BY SPEEDBRAIN HUSQVARNA - Rally 450 RR 05:44:40 00:28:23
20 025 GOUET Daniel TAMARUGAL HONDA RACING XC RALLY TEAM HONDA - CRF 450 X 05:46:43 00:30:26
21 029 BERGLUND Thomas HUSABERG RALLY TEAM SCANDINAVIA HUSABERG - FE 450 05:49:34 00:33:17
22 008 FARIA Ruben TEAM RED BULL KTM KTM - 450 CC RALLY 05:49:44 00:33:27
23 039 GYENES Emanuel VECTRA RACING KTM - 450 RR 05:53:40 00:37:23
24 144 CURTIS Darryl MEMO TOURS - ALFIE COX TEAM KTM - 450 Replica 05:56:37 00:40:20
25 018 KNUIMAN Henk WIM MOTORS DAKAR KTM - 450 REPLICA 05:58:03 00:41:46
26 021 AUBERT JOHNNY KTM RALLY FACTORY TEAM KTM - 450 RALLY 05:58:14 00:41:57
27 089 NASCIMENTO DENISIO PETROBRAS LUBRAX HONDA - CRF 450 05:58:40 00:42:23
28 033 BETHYS Thierry YAMAHA - 450 YZF Rally 05:59:24 00:43:07
29 053 RODRIGUEZ Claudio TAMARUGAL HONDA RACING XC RALLY TEAM HONDA - CRF 450 X 05:59:42 00:43:25
30 110 BIRCH Christopher MEMO TOURS - ALFIE COX TEAM KTM - 450 Replica 06:01:17 00:45:00
31 049 DABROWSKI Marek ORLEN TEAM KTM - 450 RR 06:01:47 00:45:30
32 026 RODRIGUES FILHO Jose helio HUSQVARNA RALLYE TEAM BY SPEEDBRAIN HUQSVARNA - RALLY 450 RR 06:02:22 00:46:05
33 043 PISANO Michael MP CONCEPT KTM - 450 RR 06:04:19 00:48:02
34 184 SAKIR SENKALAYCI TURKISH TEAM KTM - 450 RALLY EXC 06:05:26 00:49:09
35 066 LORMAND Etienne ROUSSILL'HOTEL - HFP YAMAHA - 450 WRF 06:05:47 00:49:30
36 035 CECI Paolo BORDONE-FERRARI KTM - 450 RR 06:06:29 00:50:12
37 048 LIEFHEBBER Hans-jos KTM - 450 RR 06:06:40 00:50:23
38 024 STANOVNIK Miran TEAM SUGAWARA KTM - 450 R 06:10:05 00:53:48
39 041 PROHENS Felipe TAMARUGAL HONDA RACING XC RALLY TEAM HONDA (Transformada) - CRF450X RALLY 06:10:43 00:54:26
40 042 PROHENS Jaime TAMARUGAL HONDA RACING XC RALLY TEAM HONDA - CRF 450X RALLY 06:20:16 01:03:59
41 057 WILLEMSEN Daniel TEAM HONDA EUROPE HONDA - CRF 450 X 06:20:27 01:04:10
42 045 SANZ PLA-GILIBERT Eulalia GAS GAS GAS - GAS - EC 450 06:24:05 01:07:48
43 060 WATT Stanley FRONT ROW GB / CRECENT KTM KTM - 450 RR 06:24:55 01:08:38
44 082 GUINDANI Vincent HFP YAMAHA - YZR 450 06:27:33 01:11:16
45 062 SCHWARZ David HUSABERG RALLYE RACING AUSTRALIA HUSABERG - FE450 06:33:54 01:17:37
46 056 MENARD Jean-Christophe HFP YAMAHA - 450 YZF 06:41:50 01:25:33
47 154 GAJDOSECH ROBERTO ANTONIO ATUEL MOTOS YAMAHA - WR 450 06:42:10 01:25:53
48 059 CIOTTI Filippo FRANCO PICCO RACING RIEJU - MRT 450 06:43:42 01:27:25
49 061 MATTOS Dimas BRASIL MOTO TOUR KTM - 450 RR 06:45:32 01:29:15
50 148 GOMEZ Mauricio PACO GOMEZ RALLY TEAM YAMAHA - WR 450 06:46:23 01:30:06
51 073 BONY BRUNO EMS KTM - 450 RR 06:47:14 01:30:57
52 040 SERRADORI Mathieu KTM - 450 Rally 06:48:45 01:32:28
53 159 CHITTICK Jamie GHR HONDA HONDA - CRF450X 06:48:47 01:32:30
54 072 GOUNON SERGE EMS KTM - 450 RR 06:51:15 01:34:58
55 071 BUTUZA Marcel BOANO HONDA - CRE F 450 X 06:51:38 01:35:21
56 149 CIPKA DUSAN SLOVAKIA TURBOTEAM ZATKO BMW - G450X 06:51:55 01:35:38
57 092 HAMARD Stephane REUNION RALLYE RAID KTM - 450 RR 06:52:35 01:36:18
58 046 BIANCHI PRATA Pedro TEAM BIANCHI PRATA / VODAFONE HUSQUARNA - TE449 RALLY 06:55:53 01:39:36
59 080 PASCUAL Pablo oscar JINCHENG TEAM JINCHENG - JC450Y 06:56:26 01:40:09
60 069 PAYEN Hugo YAMAHA - 450 WRF 06:56:57 01:40:40
61 065 LAZARD Laurent MOTO TEAM BY ELF YAMAHA - WR 450 06:58:26 01:42:09
62 177 VAN GEEL MARCO TEAM HONDA EUROPE HONDA - CFR 450 X 07:01:01 01:44:44
63 077 PICCO Franco FRANCO PICCO RACING YAMAHA - WRF 450 07:01:12 01:44:55
64 145 NUTTALL Dean MEMO TOURS - ALFIE COX TEAM KTM - 450 Replica 07:02:31 01:46:14
65 058 PUERTAS HERRERA Miguel HIMOINSA DAKAR TEAM YAMAHA - 450 WR 07:03:58 01:47:41
66 086 MUNK Jes X-RAGE RACING KTM - 450 07:06:30 01:50:13
67 164 DEMELCHORI DIEGO TEAM RPM KAWASAKI KAWASAKI - 2009 07:06:48 01:50:31
68 185 SANCHEZ MARCELO TEAM RPM KAWASAKI KAWASAKI - KLX 450 R 07:07:44 01:51:27
69 087 MEILLAT Christophe C.M PROMO KAWASAKI - KLX 450 R 07:08:02 01:51:45
70 165 MULDER GEERT TEAM HONDA EUROPE HONDA - CFR 450 X 07:08:48 01:52:31
71 075 BUSIN Pablo MOTO TEAM BY ELF YAMAHA - 450 WR 07:09:56 01:53:39
72 076 PEDERZOLI Claudio ON-OFF RACING TEAM YAMAHA - WR 450 07:11:18 01:55:01
73 181 RIOS FELIPE KTM PERU RALLY TEAM KTM - Rally Replica 07:11:22 01:55:05
74 122 PALANTE Eric WIM MOTORS RACING DIVISION KTM - 450 RR FREVA 07:11:42 01:55:25
75 151 BEALUSTEGUI Juan Manuel AL LIMITE DAKAR 2012 YAMAHA - WR 450 F 07:14:27 01:58:10
76 085 PENATE MUNOZ Pedro Manuel KH7 VALSEBIKE KTM - 450 07:16:46 02:00:29
77 138 LECOQ SEBASTIEN TEAM PERFORMANCE ENDURO YAMAHA - 450 YZFE 07:23:59 02:07:42
78 107 BODINGER Ronnie HUSABERG FACTORY TEAM HUSABERG - FE 450 07:25:46 02:09:29
79 081 SUESSE NED ADVRIDER/ NEDURO KTM - 450XCW 07:26:10 02:09:53
80 091 TONETTI NICOLA TEAM BOANO HONDA - CRF 450 X 07:27:12 02:10:55
81 174 MARTÍNEZ Paco PACO MARTINEZ KAWASAKI - KX450 07:30:29 02:14:12
82 068 BARROT David POWERBIKE YAMAHA IPONE YAMAHA - 450 IZF RALLY 07:32:14 02:15:57
83 120 ILLANES Rodrigo TARAPACA RALLY TEAM Husqvarna - TE 449 07:35:36 02:19:19
84 074 KOFMAN Erik KTM - 450 RR 07:38:40 02:22:23
85 183 RODRIGUEZ Pablo HONDA RACING ARGENTINA HONDA - CRF450X 07:41:24 02:25:07
86 100 VESELY Jan CZECH DAKAR TEAM YAMAHA - WR 450F 07:41:25 02:25:08
87 136 IGARIS GINTAUTAS YAMAHA - WR450F 07:41:27 02:25:10
88 093 GOMEZ Jorge VEMOTOR CANARIAS Husqvarna - 450cc 07:44:08 02:27:51
89 150 BELAUSTEGUI Luis FREEDOM RALLY RACING KTM - SX 150 07:57:58 02:41:41
90 176 RAAF Greg MEMO TOURS - ALFIE COX TEAM KTM - 450 Replica 08:09:12 02:52:55
91 111 ESPINASSE SYLVAIN SHERCO RALLY RAID - CROCOAVENTURES SHERCO - SR 450 08:09:27 02:53:10
92 096 CID DE LA PAZ Pablo PCP ASISTENCIA / MED BETA - RR 450 08:12:22 02:56:05
93 129 DEPOORTER Philippe WIM MOTORS DAKAR KTM - 450 08:20:28 03:04:11
94 125 ASTORI Gianernesto ABC RALLY ACTION TEAM KTM - 450 RR 08:25:19 03:09:02
95 152 TER BEEK RONALD GHR HONDA HONDA - CFR 450 X 08:28:11 03:11:54
96 140 REINIKE MARCO MARCO REINIKE KTM - 450 RALLY REPLICA 08:28:57 03:12:40
97 102 ALAN Eduardo ELF ARGENTINA Yamaha - WR 450 08:34:04 03:17:47
98 112 GUYOMARC?H Yannick SCE PERFORMANCE / ASA POMPIERS DE PARIS YAMAHA - WRF 08:38:10 03:21:53
99 142 CAREVIC Andrés INSTITUTO NACIONAL DEL DEPORTE YAMAHA - 450 WR 08:55:05 03:38:48
100 131 THEURIOT Herve REVIVAL AVENTURES YAMAHA - 450 WRF 08:58:19 03:42:02

Classement général Moto

RangNuméroPilote/EquipageEquipeMarque - ModèleTempsRetard
1 002 DESPRES Cyril TEAM RED BULL KTM KTM - 450cc Rally 28:45:17
2 001 COMA Marc KTM MRW RALLY DAKAR EAM KTM - 450 cc 28:47:45 00:02:28
3 003 RODRIGUES Helder TEAM YAMAHA RACING YAMAHA - WRF 450 29:29:36 00:44:19
4 010 VILADOMS Jordi BORDONE-FERRARI KTM - Rally Replica 29:59:00 01:13:43
5 020 FARRES GUELL Gerard BORDONE-FERRARI KTM - 450 RALLY REPLICA 30:03:22 01:18:05
6 032 SVITKO Stefan HANT LOGOMOTION SLOVAKIA KTM - 450 RR 30:03:50 01:18:33
7 005 PEDRERO GARCIA Juan KTM MRW RALLY DAKAR EAM KTM - 450cc Rally 30:22:30 01:37:13
8 006 ULLEVALSETER Pal Anders TEAM ULLEVALSETER KTM - 450 R 30:34:44 01:49:27
9 016 PAIN Olivier TEAM YAMAHA RACING YAMAHA - 450 YZF Rally 30:42:37 01:57:20
10 034 BOTTURI ALESSANDRO BORDONE-FERRARI KTM - 450 RALLY REPLICA 30:47:35 02:02:18
11 008 FARIA Ruben TEAM RED BULL KTM KTM - 450 CC RALLY 31:13:53 02:28:36
12 025 GOUET Daniel TAMARUGAL HONDA RACING XC RALLY TEAM HONDA - CRF 450 X 31:26:58 02:41:41
13 028 ZANOL FELIPE KTM BRASIL KTM - 450 Replica 31:28:26 02:43:09
14 017 CZACHOR Jacek ORLEN TEAM KTM - 450 Replica 31:53:46 03:08:29
15 021 AUBERT JOHNNY KTM RALLY FACTORY TEAM KTM - 450 RALLY 32:16:43 03:31:26
16 023 BARREDA BORT Joan HUSQVARNA RALLYE TEAM BY SPEEDBRAIN HUSQVARNA - Rally 450 RR 32:18:23 03:33:06
17 015 VERHOEVEN Frans SHERCO RALLY RAID - CROCOAVENTURES SHERCO - SR 450 32:28:03 03:42:46
18 039 GYENES Emanuel VECTRA RACING KTM - 450 RR 32:36:28 03:51:11
19 018 KNUIMAN Henk WIM MOTORS DAKAR KTM - 450 REPLICA 32:40:56 03:55:39
20 035 CECI Paolo BORDONE-FERRARI KTM - 450 RR 32:41:23 03:56:06
21 024 STANOVNIK Miran TEAM SUGAWARA KTM - 450 R 32:52:59 04:07:42
22 026 RODRIGUES FILHO Jose helio HUSQVARNA RALLYE TEAM BY SPEEDBRAIN HUQSVARNA - RALLY 450 RR 32:54:31 04:09:14
23 012 PELLICER Jose Manuel HUSQVARNA RALLYE TEAM BY SPEEDBRAIN HUSQVARNA - Rally 450 RR 33:02:17 04:17:00
24 033 BETHYS Thierry YAMAHA - 450 YZF Rally 33:35:05 04:49:48
25 064 SCHRÖDER DANIEL MEMO TOURS - ALFIE COX TEAM KTM - 450cc 33:42:16 04:56:59
26 043 PISANO Michael MP CONCEPT KTM - 450 RR 33:44:06 04:58:49
27 082 GUINDANI Vincent HFP YAMAHA - YZR 450 34:01:37 05:16:20
28 089 NASCIMENTO DENISIO PETROBRAS LUBRAX HONDA - CRF 450 34:20:58 05:35:41
29 144 CURTIS Darryl MEMO TOURS - ALFIE COX TEAM KTM - 450 Replica 34:29:19 05:44:02
30 040 SERRADORI Mathieu KTM - 450 Rally 34:41:40 05:56:23
31 041 PROHENS Felipe TAMARUGAL HONDA RACING XC RALLY TEAM HONDA (Transformada) - CRF450X RALLY 34:50:06 06:04:49
32 042 PROHENS Jaime TAMARUGAL HONDA RACING XC RALLY TEAM HONDA - CRF 450X RALLY 34:55:10 06:09:53
33 049 DABROWSKI Marek ORLEN TEAM KTM - 450 RR 34:56:24 06:11:07
34 048 LIEFHEBBER Hans-jos KTM - 450 RR 34:56:33 06:11:16
35 066 LORMAND Etienne ROUSSILL'HOTEL - HFP YAMAHA - 450 WRF 35:10:13 06:24:56
36 110 BIRCH Christopher MEMO TOURS - ALFIE COX TEAM KTM - 450 Replica 35:36:23 06:51:06
37 053 RODRIGUEZ Claudio TAMARUGAL HONDA RACING XC RALLY TEAM HONDA - CRF 450 X 35:40:25 06:55:08
38 007 GONCALVES Paulo HUSQVARNA RALLYE TEAM BY SPEEDBRAIN Husqvarna - Rally 450 RR 36:11:14 07:25:57
39 145 NUTTALL Dean MEMO TOURS - ALFIE COX TEAM KTM - 450 Replica 36:25:28 07:40:11
40 060 WATT Stanley FRONT ROW GB / CRECENT KTM KTM - 450 RR 36:28:27 07:43:10
41 050 SALVATIERRA Juan Carlos GHR HONDA HONDA - CRF450X 36:37:54 07:52:37
42 029 BERGLUND Thomas HUSABERG RALLY TEAM SCANDINAVIA HUSABERG - FE 450 36:38:57 07:53:40
43 184 SAKIR SENKALAYCI TURKISH TEAM KTM - 450 RALLY EXC 37:19:38 08:34:21
44 057 WILLEMSEN Daniel TEAM HONDA EUROPE HONDA - CRF 450 X 37:22:38 08:37:21
45 045 SANZ PLA-GILIBERT Eulalia GAS GAS GAS - GAS - EC 450 37:30:43 08:45:26
46 062 SCHWARZ David HUSABERG RALLYE RACING AUSTRALIA HUSABERG - FE450 37:45:31 09:00:14
47 183 RODRIGUEZ Pablo HONDA RACING ARGENTINA HONDA - CRF450X 37:47:47 09:02:30
48 154 GAJDOSECH ROBERTO ANTONIO ATUEL MOTOS YAMAHA - WR 450 37:49:03 09:03:46
49 071 BUTUZA Marcel BOANO HONDA - CRE F 450 X 37:55:08 09:09:51
50 046 BIANCHI PRATA Pedro TEAM BIANCHI PRATA / VODAFONE HUSQUARNA - TE449 RALLY 37:55:25 09:10:08
51 148 GOMEZ Mauricio PACO GOMEZ RALLY TEAM YAMAHA - WR 450 38:22:01 09:36:44
52 061 MATTOS Dimas BRASIL MOTO TOUR KTM - 450 RR 38:31:40 09:46:23
53 181 RIOS FELIPE KTM PERU RALLY TEAM KTM - Rally Replica 38:33:08 09:47:51
54 138 LECOQ SEBASTIEN TEAM PERFORMANCE ENDURO YAMAHA - 450 YZFE 38:37:50 09:52:33
55 185 SANCHEZ MARCELO TEAM RPM KAWASAKI KAWASAKI - KLX 450 R 38:50:31 10:05:14
56 081 SUESSE NED ADVRIDER/ NEDURO KTM - 450XCW 38:58:45 10:13:28
57 077 PICCO Franco FRANCO PICCO RACING YAMAHA - WRF 450 39:04:48 10:19:31
58 014 CASTEU David TEAM YAMAHA RACING YAMAHA - 450 WRF Rally 39:11:09 10:25:52
59 092 HAMARD Stephane REUNION RALLYE RAID KTM - 450 RR 39:11:31 10:26:14
60 059 CIOTTI Filippo FRANCO PICCO RACING RIEJU - MRT 450 39:16:42 10:31:25
61 056 MENARD Jean-Christophe HFP YAMAHA - 450 YZF 39:21:17 10:36:00
62 086 MUNK Jes X-RAGE RACING KTM - 450 39:24:24 10:39:07
63 087 MEILLAT Christophe C.M PROMO KAWASAKI - KLX 450 R 39:25:08 10:39:51
64 068 BARROT David POWERBIKE YAMAHA IPONE YAMAHA - 450 IZF RALLY 39:37:06 10:51:49
65 149 CIPKA DUSAN SLOVAKIA TURBOTEAM ZATKO BMW - G450X 39:58:54 11:13:37
66 159 CHITTICK Jamie GHR HONDA HONDA - CRF450X 40:02:41 11:17:24
67 065 LAZARD Laurent MOTO TEAM BY ELF YAMAHA - WR 450 40:04:09 11:18:52
68 165 MULDER GEERT TEAM HONDA EUROPE HONDA - CFR 450 X 40:27:15 11:41:58
69 069 PAYEN Hugo YAMAHA - 450 WRF 41:05:59 12:20:42
70 072 GOUNON SERGE EMS KTM - 450 RR 41:07:37 12:22:20
71 058 PUERTAS HERRERA Miguel HIMOINSA DAKAR TEAM YAMAHA - 450 WR 41:12:56 12:27:39
72 168 GUIRAL DEMIAN AVANT MOTOS HONDA GENUINE OIL HONDA - CRF 450X 41:13:38 12:28:21
73 100 VESELY Jan CZECH DAKAR TEAM YAMAHA - WR 450F 41:27:08 12:41:51
74 122 PALANTE Eric WIM MOTORS RACING DIVISION KTM - 450 RR FREVA 41:35:21 12:50:04
75 164 DEMELCHORI DIEGO TEAM RPM KAWASAKI KAWASAKI - 2009 41:54:33 13:09:16
76 091 TONETTI NICOLA TEAM BOANO HONDA - CRF 450 X 42:05:10 13:19:53
77 076 PEDERZOLI Claudio ON-OFF RACING TEAM YAMAHA - WR 450 42:14:58 13:29:41
78 075 BUSIN Pablo MOTO TEAM BY ELF YAMAHA - 450 WR 42:15:17 13:30:00
79 093 GOMEZ Jorge VEMOTOR CANARIAS Husqvarna - 450cc 43:11:51 14:26:34
80 074 KOFMAN Erik KTM - 450 RR 43:34:29 14:49:12
81 080 PASCUAL Pablo oscar JINCHENG TEAM JINCHENG - JC450Y 44:15:26 15:30:09
82 022 DUCLOS Alain GIOFIL APRILIA APRILIA - RXV 4.5 Rally 44:27:40 15:42:23
83 073 BONY BRUNO EMS KTM - 450 RR 44:38:24 15:53:07
84 177 VAN GEEL MARCO TEAM HONDA EUROPE HONDA - CFR 450 X 44:48:35 16:03:18
85 174 MARTÍNEZ Paco PACO MARTINEZ KAWASAKI - KX450 44:55:21 16:10:04
86 107 BODINGER Ronnie HUSABERG FACTORY TEAM HUSABERG - FE 450 45:56:49 17:11:32
87 150 BELAUSTEGUI Luis FREEDOM RALLY RACING KTM - SX 150 46:56:51 18:11:34
88 176 RAAF Greg MEMO TOURS - ALFIE COX TEAM KTM - 450 Replica 47:31:19 18:46:02
89 136 IGARIS GINTAUTAS YAMAHA - WR450F 47:58:22 19:13:05
90 151 BEALUSTEGUI Juan Manuel AL LIMITE DAKAR 2012 YAMAHA - WR 450 F 48:18:32 19:33:15
91 131 THEURIOT Herve REVIVAL AVENTURES YAMAHA - 450 WRF 48:44:09 19:58:52
92 102 ALAN Eduardo ELF ARGENTINA Yamaha - WR 450 48:45:31 20:00:14
93 099 CHERPIN Pierre KTM - 450 RR 49:07:40 20:22:23
94 085 PENATE MUNOZ Pedro Manuel KH7 VALSEBIKE KTM - 450 49:14:03 20:28:46
95 098 BLONDEAU CHRISTOPHE TEAM FRANROC YAMAHA - YZF 450 49:35:40 20:50:23
96 112 GUYOMARC?H Yannick SCE PERFORMANCE / ASA POMPIERS DE PARIS YAMAHA - WRF 50:58:25 22:13:08
97 129 DEPOORTER Philippe WIM MOTORS DAKAR KTM - 450 52:21:48 23:36:31
98 120 ILLANES Rodrigo TARAPACA RALLY TEAM Husqvarna - TE 449 52:53:02 24:07:45
99 090 DIGUIET Gilles KTM - 450 CC 52:55:54 24:10:37
100 158 VELLUTINO Carlo PERUANOS AL DAKAR KTM - 450 EXC 2011 53:05:26 24:20:09
101 111 ESPINASSE SYLVAIN SHERCO RALLY RAID - CROCOAVENTURES SHERCO - SR 450 55:07:41 26:22:24
102 125 ASTORI Gianernesto ABC RALLY ACTION TEAM KTM - 450 RR 55:56:12 27:10:55
103 140 REINIKE MARCO MARCO REINIKE KTM - 450 RALLY REPLICA 56:40:50 27:55:33
104 094 WEI Guanghui JINCHENG TEAM JINCHENG - JC 450Y 56:43:15 27:57:58
105 104 DE BENEDICTIS NETO Vicente Beta - RR 450 57:17:04 28:31:47
106 096 CID DE LA PAZ Pablo PCP ASISTENCIA / MED BETA - RR 450 57:44:29 28:59:12
107 152 TER BEEK RONALD GHR HONDA HONDA - CFR 450 X 57:56:52 29:11:35
108 105 BARRON Jacques PERUANOS AL DAKAR KTM - 450 EXL 59:39:31 30:54:14
109 172 LUCCHESE MANUEL HUSABERG FACTORY TEAM HUSABERG - FE 450 RALLY 61:24:01 32:38:44
110 128 ANO Julio TEAM NORMAND RAID YAMAHA - WRF 450 64:05:11 35:19:54
111 187 YOUNGER TOBIAS DESERT ROSE RACING KTM - 450EXC 83:36:58 54:51:41
112 142 CAREVIC Andrés INSTITUTO NACIONAL DEL DEPORTE YAMAHA - 450 WR 86:45:41 58:00:24
113 160 HAMEL ERIC YAMAHA - 450 WRF 97:22:31 68:37:14
114 162 FLAMBERT OLIVIER TEAM AL DESERT YAMAHA - 450 WR 97:35:04 68:49:47

 

Créer un site gratuit avec e-monsite - Signaler un contenu illicite sur ce site